Home   Weather   Aurora   Past weeks
Flag for USA

Past Weather in Aurora, Colorado, USA — Yesterday and Last 2 Weeks

Now
33 °F

Mostly cloudy.


Feels Like: 26 °F
Forecast: 42 / 21 °F
Wind: 9 mph from Northeast

Location: Buckley Air Force Base

Current Time: Apr 2, 2020 at 3:51:00 am

Latest Report: Apr 2, 2020 at 2:58 am


Visibility: 7 mi

Pressure: 29.67 "Hg (24.16 "Hg at 1647m altitude)

Humidity: 100%

Dew Point: 33 °F

Location of AuroraLocation

Past Weather in Aurora — Graph

°F

Aurora Temperature Yesterday

Maximum temperature yesterday: 68 °F (at 3:58 pm)
Minimum temperature yesterday: 40 °F (at 11:58 pm)
Average temperature yesterday: 52 °F

High & Low Weather Summary for the Past Weeks

 TemperatureHumidityPressure
High68 °F (Apr 1, 3:58 pm)100% (Mar 19, 1:29 am)30.46 "Hg (Mar 19, 1:29 am)
Low17 °F (Mar 21, 2:58 am)14% (Mar 18, 2:58 pm)29.48 "Hg (Apr 1, 3:58 pm)
Average40 °F63%29.87 "Hg
* Reported Mar 18 1:58 am — Apr 2 1:58 am, Aurora. Weather by CustomWeather, © 2020

Note: Actual official high and low records may vary slightly from our data, if they occured in-between our weather recording intervals... More about our weather records

Aurora Weather History for the Previous 24 Hours

Scroll right to see more
 ConditionsComfort  
Time TempWeatherWind HumidityBarometerVisibility
1:58 am
Thu, Apr 2
36 °FLow clouds.12 mph100%29.68 "Hg7 mi
12:58 am38 °FLight rain. Low clouds.9 mph100%29.68 "Hg7 mi
11:58 pm
Wed, Apr 1
40 °FLow clouds.13 mph95%29.67 "Hg10 mi
10:58 pm42 °FMostly cloudy.14 mph90%29.65 "Hg10 mi
9:58 pm45 °FPassing clouds.17 mph79%29.59 "Hg10 mi
8:58 pm51 °FPassing clouds.No wind38%29.52 "Hg10 mi
7:58 pm52 °FPartly cloudy.6 mph34%29.51 "Hg10 mi
6:58 pm60 °FPartly sunny.10 mph25%29.49 "Hg10 mi
5:58 pm63 °FPartly sunny.12 mph21%29.49 "Hg10 mi
4:58 pm65 °FPartly sunny.13 mph20%29.48 "Hg10 mi
3:58 pm68 °FBroken clouds.5 mph15%29.48 "Hg10 mi
2:58 pm65 °FBroken clouds.5 mph14%29.49 "Hg10 mi
1:58 pm66 °FBroken clouds.8 mph15%29.52 "Hg10 mi
11:58 am64 °FBroken clouds.8 mph19%29.58 "Hg10 mi
10:58 am61 °FBroken clouds.13 mph23%29.60 "Hg10 mi
9:58 am57 °FBroken clouds.13 mph27%29.62 "Hg10 mi
8:58 am53 °FBroken clouds.13 mph31%29.64 "Hg10 mi
7:58 am48 °FBroken clouds.14 mph38%29.62 "Hg10 mi
6:58 am44 °FBroken clouds.9 mph43%29.62 "Hg10 mi
5:58 am42 °FPassing clouds.8 mph46%29.61 "Hg10 mi
4:58 am42 °FPassing clouds.13 mph45%29.62 "Hg10 mi
3:58 am43 °FPassing clouds.12 mph42%29.63 "Hg10 mi
Weather by CustomWeather, © 2020

See weather overview

Advertising